| time (UTC) | temp F | wind direction | speed MPH | gust MPH | rain 1hr in | rain 24hr in | rain mn in | humidity % | barometer mb |
| 20260509233004 | 52 | 170 | 6.0 | 0.0 | 0.00 | 0.00 | 0.00 | 100 | 1014.0 |
| 20260509231504 | 52 | 170 | 6.0 | 0.0 | 0.00 | 0.00 | 0.00 | 100 | 1014.0 |
| 20260509223005 | 52 | 250 | 8.0 | 0.0 | 0.00 | 0.00 | 0.00 | 93 | 1012.0 |
| 20260509221504 | 52 | 250 | 8.0 | 0.0 | 0.00 | 0.00 | 0.00 | 93 | 1012.0 |
| 20260509220007 | 52 | 250 | 12.0 | 0.0 | 0.00 | 0.00 | 0.00 | 100 | 1012.0 |
| 20260509213004 | 52 | 250 | 13.0 | 0.0 | 0.00 | 0.00 | 0.00 | 100 | 1012.0 |
| 20260509210004 | 57 | 170 | 12.0 | 0.0 | 0.00 | 0.00 | 0.00 | 71 | 1011.0 |
| 20260509203004 | 57 | 160 | 12.0 | 0.0 | 0.00 | 0.00 | 0.00 | 76 | 1010.0 |
| 20260509190004 | 59 | 140 | 8.0 | 0.0 | 0.00 | 0.00 | 0.00 | 82 | 1010.0 |
| 20260509183004 | 57 | 120 | 5.0 | 0.0 | 0.00 | 0.00 | 0.00 | 87 | 1010.0 |
| 20260509181504 | 57 | 120 | 5.0 | 0.0 | 0.00 | 0.00 | 0.00 | 87 | 1010.0 |
| 20260509180005 | 57 | 170 | 7.0 | 0.0 | 0.00 | 0.00 | 0.00 | 87 | 1010.0 |
| 20260509173004 | 59 | 160 | 8.0 | 0.0 | 0.00 | 0.00 | 0.00 | 82 | 1009.0 |
| 20260509171504 | 59 | 160 | 8.0 | 0.0 | 0.00 | 0.00 | 0.00 | 82 | 1009.0 |
| 20260509170004 | 61 | 0 | 2.0 | 0.0 | 0.00 | 0.00 | 0.00 | 77 | 1009.0 |
| 20260509163003 | 61 | 0 | 2.0 | 0.0 | 0.00 | 0.00 | 0.00 | 82 | 1009.0 |
| 20260509153004 | 61 | 110 | 5.0 | 0.0 | 0.00 | 0.00 | 0.00 | 72 | 1010.0 |
| 20260509150004 | 59 | 70 | 3.0 | 0.0 | 0.00 | 0.00 | 0.00 | 76 | 1010.0 |
| 20260509144504 | 59 | 70 | 3.0 | 0.0 | 0.00 | 0.00 | 0.00 | 76 | 1010.0 |
| 20260509143005 | 57 | 130 | 2.0 | 0.0 | 0.00 | 0.00 | 0.00 | 87 | 1010.0 |
| 20260509141504 | 57 | 130 | 2.0 | 0.0 | 0.00 | 0.00 | 0.00 | 87 | 1010.0 |
| 20260509134504 | 55 | 180 | 6.0 | 0.0 | 0.00 | 0.00 | 0.00 | 100 | 1011.0 |
| 20260509131503 | 54 | 230 | 15.0 | 0.0 | 0.00 | 0.00 | 0.00 | 93 | 1011.0 |
| 20260509130004 | 57 | 280 | 9.0 | 0.0 | 0.00 | 0.00 | 0.00 | 87 | 1010.0 |
| 20260509124504 | 57 | 280 | 9.0 | 0.0 | 0.00 | 0.00 | 0.00 | 87 | 1010.0 |
| 20260509120004 | 59 | 210 | 7.0 | 0.0 | 0.00 | 0.00 | 0.00 | 76 | 1010.0 |
| 20260509113004 | 57 | 180 | 7.0 | 0.0 | 0.00 | 0.00 | 0.00 | 82 | 1010.0 |
| 20260509111504 | 57 | 180 | 7.0 | 0.0 | 0.00 | 0.00 | 0.00 | 82 | 1010.0 |
| 20260509110004 | 59 | 160 | 9.0 | 0.0 | 0.00 | 0.00 | 0.00 | 67 | 1010.0 |
| 20260509104503 | 59 | 160 | 9.0 | 0.0 | 0.00 | 0.00 | 0.00 | 67 | 1010.0 |
| 20260509100004 | 59 | 150 | 12.0 | 0.0 | 0.00 | 0.00 | 0.00 | 72 | 1010.0 |
| 20260509091504 | 59 | 140 | 8.0 | 0.0 | 0.00 | 0.00 | 0.00 | 72 | 1010.0 |
| 20260509083004 | 57 | 150 | 7.0 | 0.0 | 0.00 | 0.00 | 0.00 | 76 | 1010.0 |
| 20260509080004 | 55 | 160 | 6.0 | 0.0 | 0.00 | 0.00 | 0.00 | 82 | 1010.0 |
| 20260509074504 | 55 | 180 | 7.0 | 0.0 | 0.00 | 0.00 | 0.00 | 82 | 1011.0 |
| 20260509071504 | 55 | 160 | 6.0 | 0.0 | 0.00 | 0.00 | 0.00 | 76 | 1010.0 |
| 20260509070004 | 55 | 170 | 7.0 | 0.0 | 0.00 | 0.00 | 0.00 | 76 | 1010.0 |
| 20260509063004 | 55 | 170 | 8.0 | 0.0 | 0.00 | 0.00 | 0.00 | 76 | 1010.0 |
| 20260509061504 | 55 | 170 | 8.0 | 0.0 | 0.00 | 0.00 | 0.00 | 76 | 1010.0 |
| 20260509054504 | 54 | 120 | 3.0 | 0.0 | 0.00 | 0.00 | 0.00 | 87 | 1010.0 |
| 20260509050004 | 54 | 120 | 6.0 | 0.0 | 0.00 | 0.00 | 0.00 | 87 | 1009.0 |
| 20260509044504 | 54 | 120 | 6.0 | 0.0 | 0.00 | 0.00 | 0.00 | 87 | 1009.0 |
| 20260509043004 | 55 | 130 | 9.0 | 0.0 | 0.00 | 0.00 | 0.00 | 82 | 1010.0 |
| 20260509041503 | 55 | 130 | 9.0 | 0.0 | 0.00 | 0.00 | 0.00 | 82 | 1010.0 |
| 20260509040004 | 54 | 120 | 3.0 | 0.0 | 0.00 | 0.00 | 0.00 | 87 | 1010.0 |
| 20260509034504 | 54 | 120 | 3.0 | 0.0 | 0.00 | 0.00 | 0.00 | 87 | 1010.0 |
| 20260509033005 | 54 | 120 | 3.0 | 0.0 | 0.00 | 0.00 | 0.00 | 87 | 1010.0 |
| 20260509024504 | 54 | 120 | 3.0 | 0.0 | 0.00 | 0.00 | 0.00 | 87 | 1010.0 |
| 20260509021504 | 52 | 150 | 1.0 | 0.0 | 0.00 | 0.00 | 0.00 | 93 | 1010.0 |
| 20260509014504 | 50 | 0 | 1.0 | 0.0 | 0.00 | 0.00 | 0.00 | 100 | 1011.0 |
| 20260509010004 | 52 | 0 | 2.0 | 0.0 | 0.00 | 0.00 | 0.00 | 93 | 1011.0 |
| 20260509004503 | 52 | 0 | 2.0 | 0.0 | 0.00 | 0.00 | 0.00 | 93 | 1011.0 |
| 20260509001504 | 54 | 0 | 2.0 | 0.0 | 0.00 | 0.00 | 0.00 | 87 | 1011.0 |
| 20260509000004 | 54 | 0 | 2.0 | 0.0 | 0.00 | 0.00 | 0.00 | 87 | 1011.0 |